Location: *
(51.0333°S, 178.4667°E)
Time: 13:35:47
(UTC+00:00)

Cosmos 1741 Rocket - Pass Details

Date: 15 November 2019
Orbit: 762 x 781 km, 74.0° (Epoch: 14 December)

Event Time Altitude Azimuth Distance (km) Brightness Sun altitude
Rises 10:02:37 0° 205° (SSW) 3,297 9.1 -16.6°
Reaches altitude 10° 10:05:02 10° 203° (SSW) 2,366 7.9 -16.7°
Maximum altitude 10:10:26 80° 115° (ESE) 809 4.1 -17.1°
Enters shadow 10:13:11 30° 31° (NNE) 1,394 4.8 -17.3°
